User: anonymous   Login
Location: Unspecified
(0.0000°N, 0.0000°E)
Time: 09:19:44
(UTC+00:00)
Language:

BUGSAT 1 - Orbit

View from above orbital plane
View from above orbital plane
View from above satellite
View from above satellite

Ground track
Ground track

The orbit data is extracted from the following two-line orbital elements,

1 40014U 14033E   17086.77128112 -.00000030 +00000-0 +29346-5 0  9994
2 40014 097.9541 010.4607 0030559 235.0921 124.7369 14.94675512151045
Epoch (UTC): 27 March 2017 18:30:38
Eccentricity: 0.0030559
inclination: 97.9541°
perigee height: 562 km
apogee height: 604 km
right ascension of ascending node: 10.4607°
argument of perigee: 235.0921°
revolutions per day: 14.94675512
mean anomaly at epoch: 124.7369°
orbit number at epoch: 15104

The dashed part of the orbit path shows where the satellite is in the earth's shadow,  

DLR